Location: Campillo
(40.8621°N, 4.2488°W)
Time: 10:40:14
(UTC+00:00)

Centaur D AC-29 - Visible Passes

Search period start: 28 September 2021 00:00
Search period end: 08 October 2021 00:00
Orbit: 566 x 36271 km, 26.8° (Epoch: 27 September)

Date Brightness Start Highest point End Pass type
(mag) Time Alt. Az. Time Alt. Az. Time Alt. Az.
28 Sep 8.5 02:28:30 10° E 06:42:36 37° E 08:12:41 10° E visible
30 Sep 5.8 04:55:56 10° SSW 08:38:52 49° SW 14:41:05 10° SE visible
01 Oct 6.6 02:31:11 10° SSE 11:19:49 70° S 12:09:57 10° ESE visible
02 Oct 7.7 01:46:08 10° ESE 07:57:59 55° ESE 09:33:30 10° E visible
03 Oct 9.4 02:32:12 10° E 05:22:02 25° E 06:41:27 10° ENE visible
05 Oct 6.1 03:35:46 10° S 08:31:57 57° SSW 13:23:07 10° SE visible
06 Oct 7.1 01:30:40 10° SE 09:25:22 68° SSE 10:50:07 10° E visible
07 Oct 8.4 01:41:43 10° E 06:33:38 43° ESE 08:09:25 10° E visible
